Other Surface Observations
Issued by NWS Tucson, AZ

Home | Current Version | Previous Version | Text Only | Print | Product List | Glossary On
Versions: 1 2 3 4 5 6 7 8 9 10 11 12 13 14 15 16 17 18 19 20 21 22 23 24 25 26 27 28 29 30 31 32 33 34 35 36 37 38 39 40 41 42 43 44 45 46 47 48 49 50
000
SXUS55 KTWC 251015
OSOTWC

WEATHER ROUNDUP FOR SOUTHEAST ARIZONA
NATIONAL WEATHER SERVICE TUCSON AZ
315 AM MST MON JUL 25 2016

AZZ504>506-514-251115-
LOCATION       SKY/WX    TMP DP  RH WIND       PRES   REMARKS
TUCSON         CLOUDY    84  58  40 S10       30.04F
DAVIS-MONTHAN  CLOUDY    82  58  43 S6        30.03S
CHILDRENS PARK N/A      N/A N/A  39 SE12              PIMA CO DEQ
ALVERNON/22ND  N/A       83 N/A N/A SE12              PIMA CO DEQ
CHERRY/GLENN   N/A      N/A N/A N/A N/A               PIMA CO DEQ
TANGERINE      N/A       84 N/A N/A S11               PIMA CO DEQ
CONTL RANCH    N/A       86  57  38 SE11              PIMA CO DEQ
GRANT/1ST      N/A       84  57  40 SE9               PIMA CO DEQ
CRAYCROFT/22ND N/A       83  58  42 SE11              PIMA CO DEQ
GOLFLINKS/KOLB N/A      N/A N/A N/A N/A               PIMA CO DEQ
AJO/12TH       N/A       83  58  43 SE13              PIMA CO DEQ
SAGUARO EAST   N/A       27   7  42 SE14              PIMA CO DEQ
FAIRGROUNDS    N/A       79 N/A N/A SE13              PIMA CO DEQ
SAGUARO        N/A       81  57  44 W3G12             *SABINO CYN
SAN CARLOS     N/A       83  56  40 SW8G15            *SAN CARLOS
GREEN VALLEY   N/A       80  56  44 SW14              PIMA CO DEQ
HORSE CAMP CYN N/A       73  57  58 SE14G24           *ARAVAIPA CYN
RINCON MTNS    N/A       61  48  62 NE4G10            *NR MANNING CAMP
$$

AZZ509>511-251115-
LOCATION       SKY/WX    TMP DP  RH WIND       PRES   REMARKS
SAFFORD        CLOUDY    80  55  42 E17G26    30.04S
STRAY HORSE    N/A       60  47  61 NE2               *
TRAIL CABIN    N/A       64  50  61 CALM              *N OF GRANVILLE
BLACK HILLS    NOT AVBL
DRY LAKE       N/A       64  48  56 S5G11             *NATANES MTNS
NOON CREEK     N/A       76  49  38 SW5               *PINALENO MTNS
COLUMBINE      N/A       49  46  91 CALM              *PINALENO MTNS
GUTHRIE        N/A       68  51  55 N6G15             *SW OF GUTHRIE
$$

AZZ502-503-513-251115-
LOCATION       SKY/WX    TMP DP  RH WIND       PRES   REMARKS
NOGALES        CLOUDY    72  58  61 E5        30.12F
SELLS          N/A       84  62  47 S5G10             *
SASABE         N/A       77  59  53 SW4G12            *ALTAR VLY
HOPKINS        N/A       66  46  49 E6G18             *SANTA RITA MTNS
CARR CYN       N/A       68  54  60 SW2G10            *W OF HEREFORD
$$

AZZ507-508-512-251115-
LOCATION       SKY/WX    TMP DP  RH WIND       PRES   REMARKS
SIERRA VISTA   CLOUDY    66  60  80 CALM      30.18F
DOUGLAS          N/A    N/A N/A N/A MISG      30.13F
EMPIRE MTNS    NOT AVBL
MULESHOE RANCH N/A       69  57  65 SE3               *PRESERVE
HEADQUARTERS   NOT AVBL
$$

.............................NOTES.............................
THIS IS AN AUTOMATED COLLECTIVE WITH MINIMAL QUALITY CONTROL.
PIMA CO DEQ SITES HAVE NONSTANDARD WIND SENSOR HEIGHTS.
PIMA CO DEQ SITES DO NOT REPORT WIND GUSTS.
* INDICATES WIND SENSORS LOCATED AT 20 FEET INSTEAD OF 33 FEET.
..............................KEY..............................
SKY/WX - SKY CONDITION/WEATHER
TMP    - TEMPERATURE IN FAHRENHEIT
DP     - DEWPOINT IN FAHRENHEIT
RH     - RELATIVE HUMIDITY IN PERCENT
WIND   - DIRECTION AND SPEED IN MILES PER HOUR (MPH)
VRB    - VARIABLE WIND DIRECTION
PRES   - MEAN SEA LEVEL PRESSURE IN INCHES OF MERCURY
         F - FALLING PRESSURE   R - RISING PRESSURE
         S - STEADY PRESSURE
VSB    - VISIBILITY IN MILES
HX     - HEAT INDEX IN FAHRENHEIT
WCI    - WIND CHILL INDEX IN FAHRENHEIT
N/A    - NOT AVAILABLE
AFB    - AIR FORCE BASE
         DAVIS-MONTHAN IS DAVIS-MONTHAN AIR FORCE BASE
CYN    - CANYON
MTNS   - MOUNTAINS
NCA    - NATIONAL CONSERVATION AREA
NR     - NEAR
VLY    - VALLEY
CONTL  - CONTINENTAL
PIMA CO DEQ - PIMA COUNTY DEPT OF ENVIRONMENTAL QUALITY



USA.gov is the U.S. government's official web portal to all federal, state and local government web resources and services.